Stations météo

réclame
Mon MeteoGroup
Eindhoven, Pays-Bas (6370): Température de l'air & dewpoint: 17.01.2020 22:00:00 - 23.01.2020 22:00:00 (CET)Eindhoven, Pays-Bas (6370): Température de l'air 5cm: 17.01.2020 22:00:00 - 23.01.2020 22:00:00 (CET)Eindhoven, Pays-Bas (6370): Vitesse du vent & gusts: 17.01.2020 22:00:00 - 23.01.2020 22:00:00 (CET)Eindhoven, Pays-Bas (6370): Direction du vent: 17.01.2020 22:00:00 - 23.01.2020 22:00:00 (CET)Eindhoven, Pays-Bas (6370): reduced air pressure: 17.01.2020 22:00:00 - 23.01.2020 22:00:00 (CET)Eindhoven, Pays-Bas (6370): visibility: 17.01.2020 22:00:00 - 23.01.2020 22:00:00 (CET)Eindhoven, Pays-Bas (6370): Quantités de précipitations: 17.01.2020 22:00:00 - 23.01.2020 22:00:00 (CET)
Date & Time tt [°C] td [°C] tt 5cm [°C] ff [km/h] ff [knt] fx [km/h] fx [knt] dd ppp [hPa] vv [km] rr [mm]
23.01.2020 22:00:00 2,2 1,4 2,3 9 5 14 8 E 1027,3 3,4 0,0
23.01.2020 21:00:00 2,8 1,8 2,8 8 4 14 8 ESE 1027,5 3,4 0,0
23.01.2020 20:00:00 2,8 1,6 2,8 9 5 14 8 ESE 1028,0 4,2 0,0
23.01.2020 19:00:00 2,9 1,6 2,9 9 5 14 8 SE 1028,3 5 0,0
23.01.2020 18:00:00 3,4 1,8 3,3 11 6 14 8 ESE 1028,6 7 0,0
23.01.2020 17:00:00 3,9 1,7 3,8 9 5 18 10 ESE 1029,0 10 0,0
23.01.2020 16:00:00 4,3 1,6 4,3 9 5 18 10 E 1029,5 10 0,0
23.01.2020 15:00:00 4,6 1,4 4,8 11 6 22 12 E 1030,2 10 0,0
23.01.2020 14:00:00 5,1 1,6 5,4 9 5 22 12 E 1030,8 10 0,0
23.01.2020 13:00:00 5,3 2,0 5,8 11 6 18 10 ENE 1031,7 10 0,0
23.01.2020 12:00:00 4,9 2,2 6,3 8 4 11 6 - 1032,7 8 0,0
23.01.2020 11:00:00 4,2 2,4 4,6 5 3 11 6 E 1033,4 7 -
23.01.2020 10:00:00 3,6 2,4 3,5 5 3 7 4 ESE 1033,6 5 0,0
23.01.2020 09:00:00 3,3 2,2 3,1 5 3 11 6 SE 1033,8 5 0,0
23.01.2020 08:00:00 3,4 2,4 2,8 5 3 11 6 ESE 1033,7 5 0,0
23.01.2020 07:00:00 3,5 3,1 3,0 5 3 7 4 E 1034,0 1,3 0,0
23.01.2020 06:00:00 3,7 3,3 3,4 5 3 7 4 ENE 1034,2 2,1 0,0
23.01.2020 05:00:00 4,1 3,8 3,9 5 3 11 6 ESE 1034,6 2,3 0,0
23.01.2020 04:00:00 4,1 3,9 4,0 2 1 7 4 ENE 1035,2 2,0 0,0
23.01.2020 03:00:00 4,1 3,8 4,0 5 3 7 4 SE 1035,8 1,8 0,0
23.01.2020 02:00:00 4,0 3,9 4,0 8 4 11 6 SE 1036,0 1,5 0,0
23.01.2020 01:00:00 4,0 3,8 4,0 2 1 4 2 SW 1036,5 0,8 0,0
23.01.2020 00:00:00 4,0 3,8 3,9 2 1 4 2 SSE 1036,8 1,0 0,0
22.01.2020 23:00:00 3,9 3,7 3,8 4 2 4 2 - 1036,9 0,3 0,0
22.01.2020 22:00:00 3,7 3,6 3,7 4 2 11 6 - 1036,9 0,4 0,0
22.01.2020 21:00:00 3,6 3,4 3,6 4 2 7 4 S 1036,9 0,3 0,0
22.01.2020 20:00:00 3,6 3,3 3,7 2 1 7 4 SSE 1036,9 0,4 0,0
22.01.2020 19:00:00 3,5 3,3 3,6 2 1 7 4 S 1036,9 0,5 0,0
22.01.2020 18:00:00 3,5 3,4 3,6 2 1 11 6 W 1036,6 0,7 0,0
22.01.2020 17:00:00 3,5 3,3 3,6 5 3 11 6 WSW 1036,4 0,7 0,0
22.01.2020 16:00:00 3,4 3,2 3,6 4 2 11 6 - 1036,6 2,0 0,0
22.01.2020 15:00:00 3,3 3,0 3,7 5 3 11 6 WSW 1036,3 1,9 0,0
22.01.2020 14:00:00 2,8 2,5 3,3 5 3 11 6 SW 1036,6 1,6 0,0
22.01.2020 13:00:00 2,3 2,1 3,0 8 4 11 6 WSW 1037,0 1,4 0,0
22.01.2020 12:00:00 1,4 1,2 2,1 5 3 11 6 SW 1037,7 1,3 0,0
22.01.2020 11:00:00 0,2 -0,1 1,1 8 4 11 6 SW 1038,0 2,4 0,0
22.01.2020 10:00:00 -0,3 -0,5 -0,1 9 5 11 6 SSW 1037,4 2,1 0,0
22.01.2020 09:00:00 -0,6 -0,9 -0,5 4 2 7 4 - 1037,7 3,0 0,0
22.01.2020 08:00:00 -1,0 -1,2 -0,8 8 4 11 6 SSW 1037,1 3,1 0,0
22.01.2020 07:00:00 -1,1 -1,3 -1,0 8 4 11 6 SSW 1037,1 2,7 0,0
22.01.2020 06:00:00 -1,1 -1,3 -1,0 8 4 11 6 SSW 1037,3 1,2 0,0
22.01.2020 05:00:00 -1,1 -1,3 -1,0 8 4 11 6 SSW 1038,0 0,4 0,0
22.01.2020 04:00:00 -1,2 -1,4 -1,0 5 3 7 4 SSW 1038,3 0,4 0,0
22.01.2020 03:00:00 -1,3 -1,5 -1,1 5 3 11 6 S 1038,5 0,3 0,0
22.01.2020 02:00:00 -1,3 -1,5 -1,1 5 3 11 6 S 1038,7 0,3 0,0
22.01.2020 01:00:00 -1,3 -1,5 -1,1 5 3 14 8 S 1039,4 0,3 0,0
22.01.2020 00:00:00 -1,6 -1,8 -1,7 8 4 14 8 NW 1039,9 0,4 0,0
21.01.2020 23:00:00 -2,0 -2,2 -1,8 9 5 11 6 NNW 1039,5 0,4 0,0
21.01.2020 22:00:00 -2,0 -2,2 -1,7 5 3 11 6 SSW 1040,0 0,3 0,0
21.01.2020 21:00:00 -1,5 -1,7 -1,3 4 2 7 4 - 1040,0 0,3 0,0
21.01.2020 20:00:00 -1,4 -1,6 -1,1 5 3 11 6 - 1040,4 0,3 0,0
21.01.2020 19:00:00 -1,0 -1,2 -0,6 5 3 11 6 - 1040,7 0,3 0,0
21.01.2020 18:00:00 -0,6 -0,8 -0,3 4 2 7 4 - 1040,9 0,3 0,0
21.01.2020 17:00:00 -0,2 -0,4 0,0 5 3 11 6 SW 1041,1 0,3 0,0
21.01.2020 16:00:00 0,0 -0,2 0,6 5 3 11 6 W 1041,2 0,8 0,0
21.01.2020 15:00:00 0,0 -0,2 0,8 4 2 11 6 - 1041,4 2,4 0,0
21.01.2020 14:00:00 -0,1 -0,3 0,7 4 2 14 8 - 1042,1 1,2 0,0
21.01.2020 13:00:00 -0,5 -0,7 0,3 8 4 11 6 SSW 1042,6 0,6 0,0
21.01.2020 12:00:00 -1,2 -1,4 -0,5 8 4 14 8 SSW 1043,3 0,4 0,0
21.01.2020 11:00:00 -1,9 -2,1 -1,4 4 2 7 4 - 1043,9 0,3 0,0
21.01.2020 10:00:00 -2,2 -2,4 -1,8 4 2 7 4 - 1043,4 0,2 0,0
21.01.2020 09:00:00 -1,9 -2,1 -1,8 5 3 11 6 W 1043,1 0,2 0,0
21.01.2020 08:00:00 -1,6 -1,8 -1,5 9 5 14 8 S 1042,9 0,3 0,0
21.01.2020 07:00:00 -1,2 -1,4 -0,9 5 3 7 4 SW 1043,1 0,3 0,0
21.01.2020 06:00:00 -0,8 -1,0 -0,7 5 3 11 6 S 1043,3 0,3 0,0
21.01.2020 05:00:00 -0,7 -0,9 -0,5 5 3 11 6 S 1043,6 0,3 0,0
21.01.2020 04:00:00 -0,6 -0,8 -0,4 5 3 11 6 S 1044,0 0,3 0,0
21.01.2020 03:00:00 -0,4 -0,6 -0,3 5 3 7 4 S 1044,6 0,2 0,0
21.01.2020 02:00:00 0,0 -0,2 0,0 5 3 7 4 SSE 1045,0 0,3 0,0
21.01.2020 01:00:00 0,3 0,2 0,3 5 3 11 6 S 1045,4 0,3 0,0
21.01.2020 00:00:00 0,9 0,7 0,9 9 5 11 6 SSE 1045,5 0,3 0,0
20.01.2020 23:00:00 1,4 1,2 1,3 8 4 11 6 SSE 1045,8 0,2 0,0
20.01.2020 22:00:00 1,7 1,5 1,7 4 2 4 2 - 1046,1 0,2 0,0
20.01.2020 21:00:00 2,4 2,2 2,0 4 2 7 4 S 1046,4 0,2 0,0
20.01.2020 20:00:00 3,2 3,0 3,2 5 3 7 4 S 1046,5 0,3 0,0
20.01.2020 19:00:00 3,5 3,3 3,5 5 3 11 6 S 1046,6 1,7 0,0
20.01.2020 18:00:00 3,8 3,3 3,7 4 2 7 4 - 1046,7 2,3 0,0
20.01.2020 17:00:00 4,0 3,4 4,0 4 2 7 4 - 1046,8 3,4 0,0
20.01.2020 16:00:00 4,4 3,7 4,5 5 3 11 6 SW 1046,9 2,5 0,0
20.01.2020 15:00:00 4,5 4,0 4,8 5 3 11 6 SSW 1047,4 2,7 0,0
20.01.2020 14:00:00 3,8 3,5 4,3 8 4 11 6 SW 1047,8 2,7 0,0
20.01.2020 13:00:00 3,3 3,0 3,8 8 4 11 6 S 1048,5 3,1 0,0
20.01.2020 12:00:00 2,6 2,4 2,9 4 2 7 4 - 1048,5 3,0 0,0
20.01.2020 11:00:00 1,2 1,1 1,1 4 2 7 4 - 1048,8 0,3 0,0
20.01.2020 10:00:00 -0,2 -0,5 -0,2 4 2 4 2 - 1048,6 0,2 0,0
20.01.2020 09:00:00 -1,4 -1,5 -1,6 2 1 4 2 - 1048,2 0,2 0,0
20.01.2020 08:00:00 -1,7 -2,1 -2,1 4 2 4 2 SSW 1047,8 0,2 0,0
20.01.2020 07:00:00 -1,6 -1,7 -2,0 4 2 4 2 SW 1047,8 0,3 0,0
20.01.2020 06:00:00 -1,6 -1,7 -2,5 2 1 4 2 WSW 1047,8 0,2 0,0
20.01.2020 05:00:00 -1,8 -2,3 -2,8 2 1 4 2 WSW 1047,4 0,2 0,0
20.01.2020 04:00:00 -1,7 -2,1 -2,7 2 1 4 2 SSW 1047,3 0,3 0,0
20.01.2020 03:00:00 -1,8 -2,0 -3,7 2 1 4 2 W 1047,4 0,2 0,0
20.01.2020 02:00:00 0,0 -0,2 -3,1 2 1 4 2 W 1047,3 0,4 0,0
20.01.2020 01:00:00 0,4 0,1 -1,5 2 1 7 4 - 1047,2 4,1 0,0
20.01.2020 00:00:00 0,8 0,4 -3,0 4 2 11 6 NNW 1047,3 4,4 0,0
19.01.2020 23:00:00 0,7 0,4 -2,6 2 1 7 4 - 1046,7 6 0,0
19.01.2020 22:00:00 0,6 -0,1 -2,7 4 2 11 6 NW 1046,4 8 0,0
19.01.2020 21:00:00 1,1 0,3 -2,1 8 4 11 6 NNW 1045,9 10 0,0
19.01.2020 20:00:00 2,1 0,3 0,3 9 5 14 8 NNW 1045,2 10 0,0
19.01.2020 19:00:00 3,6 1,0 0,2 8 4 14 8 NW 1044,5 10 0,0
19.01.2020 18:00:00 4,5 1,3 2,0 8 4 14 8 N 1043,9 10 0,0
19.01.2020 17:00:00 6,1 1,7 4,9 11 6 18 10 N 1042,9 10 0,0
19.01.2020 16:00:00 7,3 2,5 6,9 13 7 29 16 N 1041,9 10 0,0
19.01.2020 15:00:00 7,5 2,8 7,3 15 8 25 14 N 1041,0 10 0,0
19.01.2020 14:00:00 7,1 2,7 7,1 16 9 29 16 N 1040,5 10 0,0
19.01.2020 13:00:00 7,0 3,0 7,1 15 8 25 14 N 1040,1 10 0,0
19.01.2020 12:00:00 5,8 3,0 5,5 13 7 22 12 N 1039,8 10 0,0
19.01.2020 11:00:00 4,4 2,1 3,9 13 7 18 10 NNW 1039,4 10 0,0
19.01.2020 10:00:00 2,3 1,1 1,2 9 5 18 10 NW 1038,3 10 0,0
19.01.2020 09:00:00 -0,1 -0,3 -1,4 5 3 11 6 WNW 1036,9 10 0,0
19.01.2020 08:00:00 0,3 -0,3 -2,6 8 4 11 6 W 1035,7 10 0,0
19.01.2020 07:00:00 1,0 0,0 -0,9 8 4 14 8 W 1034,9 10 0,0
19.01.2020 06:00:00 0,8 -0,3 -1,6 5 3 14 8 W 1034,2 10 0,0
19.01.2020 05:00:00 1,1 0,1 -1,2 8 4 14 8 W 1033,7 10 0,0
19.01.2020 04:00:00 0,2 -0,3 -3,0 5 3 11 6 W 1033,1 10 0,0
19.01.2020 03:00:00 0,7 -0,3 -1,4 8 4 14 8 W 1032,8 10 0,0
19.01.2020 02:00:00 1,4 0,4 -1,6 8 4 14 8 W 1032,1 10 0,0
19.01.2020 01:00:00 0,8 0,1 -2,1 8 4 11 6 WSW 1031,4 10 0,0
19.01.2020 00:00:00 -0,2 -1,0 -2,3 9 5 11 6 WSW 1031,0 10 0,0
18.01.2020 23:00:00 1,6 0,5 0,1 5 3 11 6 WSW 1030,2 10 0,0
18.01.2020 22:00:00 1,8 1,0 -0,1 5 3 14 8 W 1029,9 10 0,0
18.01.2020 21:00:00 2,3 1,0 1,2 11 6 18 10 WSW 1029,4 10 0,0
18.01.2020 20:00:00 2,6 1,4 1,3 11 6 18 10 WSW 1029,1 10 0,0
18.01.2020 19:00:00 2,2 1,0 1,1 5 3 11 6 WSW 1028,5 10 0,1
18.01.2020 18:00:00 3,5 1,7 3,3 16 9 29 16 NNW 1027,9 10 0,4
18.01.2020 17:00:00 5,3 1,2 4,3 15 8 32 18 W 1026,7 10 0,0
18.01.2020 16:00:00 6,7 1,8 5,9 15 8 25 14 W 1025,9 10 0,0
18.01.2020 15:00:00 6,7 2,0 6,3 22 12 29 16 WSW 1025,5 10 0,0
18.01.2020 14:00:00 6,2 2,3 5,6 13 7 25 14 W 1025,2 10 0,0
18.01.2020 13:00:00 6,3 2,7 6,2 16 9 32 18 W 1025,2 10 0,0
18.01.2020 12:00:00 6,3 3,4 6,0 16 9 25 14 WSW 1024,9 10 0,0
18.01.2020 11:00:00 4,9 2,7 4,9 16 9 29 16 SW 1024,7 10 0,0
18.01.2020 10:00:00 4,2 2,6 4,2 22 12 32 18 SW 1023,8 10 0,0
18.01.2020 09:00:00 4,0 2,3 3,2 22 12 40 21 SW 1023,2 10 0,0
18.01.2020 08:00:00 4,2 2,3 3,1 22 12 32 18 SW 1022,6 10 0,0
18.01.2020 07:00:00 3,9 1,9 3,5 18 10 29 16 SSW 1022,1 10 0,0
18.01.2020 06:00:00 3,5 1,7 3,0 21 11 29 16 SSW 1021,8 10 0,0
18.01.2020 05:00:00 3,8 1,8 3,1 13 7 22 12 SSW 1021,6 10 0,0
18.01.2020 04:00:00 3,1 1,4 2,4 15 8 29 16 SSW 1021,5 10 0,0
18.01.2020 03:00:00 3,6 1,8 2,8 18 10 25 14 SSW 1021,3 10 0,0
18.01.2020 02:00:00 3,7 2,2 2,7 16 9 22 12 SW 1020,8 10 0,0
18.01.2020 01:00:00 3,4 1,8 2,7 15 8 22 12 SSW 1020,4 10 0,0
18.01.2020 00:00:00 3,8 1,8 2,8 13 7 18 10 SSW 1019,9 10 0,0
17.01.2020 23:00:00 3,3 0,9 2,5 13 7 25 14 SW 1019,6 10 0,0
17.01.2020 22:00:00 6,1 1,4 4,7 21 11 36 19 W 1019,1 10 0,0

tt = Température de l'air
td = dewpoint
tt 5cm = Température de l'air 5cm
ff = Vitesse du vent
fx = gusts
dd = Direction du vent
ppp = reduced air pressure
vv = visibility
rr = Quantités de précipitations

stations d'obs. à proximité